Hollywood, FL

9:42 AM EDT on September 19, 2019 (GMT -0400)
North Perry

Weather History for KHWO - August, 2019

Change the Weather History Date:

Saturday, August 24, 2019

  Actual Average (KFLL) Record (KFLL)
Temperature  
Mean Temperature 84 °F 84 °F  
Max Temperature 89 °F 90 °F 96 °F (1969)
Min Temperature 79 °F 78 °F 67 °F (1915)
Degree Days  
Heating Degree Days 0 0  
Month to date heating degree days 0  
Since 1 June heating degree days 0  
Since 1 July heating degree days 0  
Cooling Degree Days 18 19  
Month to date cooling degree days 475  
Year to date cooling degree days 3034  
Since 1 June cooling degree days 1616  
Growing Degree Days 34 (Base 50)    
Moisture  
Dew Point 76 °F    
Average Humidity 80    
Maximum Humidity 90    
Minimum Humidity 65    
Precipitation  
Precipitation 0.96 in 0.26 in 3.40 in (1970)
Month to date precipitation 5.57  
Year to date precipitation 39.20  
Snow  
Snow 0.00 in - - ()
Month to date snowfall  
Since 1 June snowfall  
Since 1 July snowfall  
Snow Depth -    
Sea Level Pressure  
Sea Level Pressure 29.94 in    
Wind  
Wind Speed 4 mph (SSE)    
Max Wind Speed 9 mph    
Max Gust Speed -    
Visibility 9 miles    
Events Rain    
T = Trace of Precipitation, MM = Missing Value Source: NWS Daily Summary

Daily Weather History Graph

Daily Weather History Graph

Search for Another Location

Airport or City:

Astronomy

Aug. 24, 2019 Rise Set
Actual Time 6:57 AM EDT 7:48 PM EDT
Civil Twilight 6:33 AM EDT 8:12 PM EDT
Nautical Twilight 6:05 AM EDT 8:40 PM EDT
Astronomical Twilight 5:37 AM EDT 9:08 PM EDT
Moon 1:01 AM EDT (8/24) 2:47 PM EDT (8/24)
Length of Visible Light 13h 38m
Length of Day
12h 51m
Last Quarter, 39% of the Moon is Illuminated
Aug 24
Last Quarter
Aug 30
New
Sep 5
First Quarter
Sep 14
Full
Sep 21
Last Quarter

Hourly Weather History & Observations

Time (EDT) Temp. Heat Index Dew Point Humidity Pressure Visibility Wind Dir Wind Speed Gust Speed Precip Events Conditions
12:53 AM 82.0 °F 90.2 °F 77.0 °F 85% 29.94 in 10.0 mi Calm Calm - N/A   Mostly Cloudy
1:18 AM 80.1 °F 85.4 °F 75.9 °F 87% 29.94 in 2.5 mi South 8.1 mph - 0.16 in Rain Heavy Rain
1:27 AM 79.0 °F - 75.9 °F 90% 29.94 in 1.8 mi South 5.8 mph - 0.33 in Rain Heavy Rain
1:31 AM 79.0 °F - 75.9 °F 90% 29.93 in 2.0 mi South 5.8 mph - 0.38 in Rain Heavy Rain
1:42 AM 79.0 °F - 75.9 °F 90% 29.93 in 5.0 mi SSE 4.6 mph - 0.44 in Rain Rain
1:53 AM 79.0 °F - 75.9 °F 90% 29.93 in 6.0 mi East 4.6 mph - 0.48 in Rain Rain
2:53 AM 80.1 °F 85.4 °F 75.9 °F 87% 29.93 in 10.0 mi SE 4.6 mph - 0.01 in   Scattered Clouds
3:53 AM 80.1 °F 85.4 °F 75.9 °F 87% 29.91 in 9.0 mi SE 4.6 mph - 0.02 in Rain Light Rain
4:26 AM 79.0 °F - 75.0 °F 88% 29.91 in 9.0 mi East 6.9 mph - 0.30 in Rain Light Rain
4:53 AM 79.0 °F - 75.9 °F 90% 29.92 in 8.0 mi Calm Calm - 0.45 in Rain Rain
5:53 AM 80.1 °F 85.8 °F 77.0 °F 90% 29.92 in 10.0 mi WSW 5.8 mph - 0.00 in   Mostly Cloudy
6:53 AM 80.1 °F 85.8 °F 77.0 °F 90% 29.92 in 10.0 mi SSW 4.6 mph - N/A   Clear
7:53 AM 81.0 °F 87.3 °F 75.9 °F 85% 29.93 in 10.0 mi Calm Calm - N/A   Clear
8:53 AM 84.0 °F 92.6 °F 75.9 °F 76% 29.94 in 10.0 mi Calm Calm - N/A   Partly Cloudy
9:53 AM 86.0 °F 96.0 °F 75.9 °F 72% 29.96 in 10.0 mi South 8.1 mph - N/A   Scattered Clouds
10:45 AM 88.0 °F 98.5 °F 75.9 °F 67% 29.96 in 10.0 mi SSW 5.8 mph - N/A   Scattered Clouds
10:53 AM 88.0 °F 97.5 °F 75.0 °F 65% 29.96 in 10.0 mi South 4.6 mph - N/A   Scattered Clouds
11:53 AM 84.9 °F 96.6 °F 78.1 °F 80% 29.96 in 10.0 mi ESE 9.2 mph - N/A   Mostly Cloudy
12:41 PM 82.9 °F 90.2 °F 75.0 °F 77% 29.96 in 10.0 mi SE 9.2 mph - 0.00 in   Overcast
1:14 PM 82.0 °F 88.6 °F 75.0 °F 79% 29.97 in 10.0 mi SW 3.5 mph - 0.00 in   Overcast
1:41 PM 82.0 °F 88.6 °F 75.0 °F 79% 29.96 in 10.0 mi SE 5.8 mph - 0.00 in Rain Light Rain
1:53 PM 82.0 °F 89.4 °F 75.9 °F 82% 29.96 in 10.0 mi ESE 4.6 mph - 0.00 in Rain Light Rain
2:53 PM 84.0 °F 92.6 °F 75.9 °F 76% 29.94 in 10.0 mi South 6.9 mph - 0.00 in   Clear
3:53 PM 84.9 °F 94.1 °F 75.9 °F 74% 29.91 in 10.0 mi South 3.5 mph - N/A   Clear
4:53 PM 86.0 °F 96.0 °F 75.9 °F 72% 29.90 in 10.0 mi South 8.1 mph - N/A   Partly Cloudy
5:53 PM 87.1 °F 97.3 °F 75.9 °F 69% 29.90 in 10.0 mi South 5.8 mph - N/A   Mostly Cloudy
6:53 PM 87.1 °F 95.4 °F 73.9 °F 65% 29.90 in 10.0 mi SSE 5.8 mph - N/A   Scattered Clouds
7:53 PM 84.9 °F 95.3 °F 77.0 °F 77% 29.92 in 10.0 mi SSE 6.9 mph - N/A   Clear
8:53 PM 84.9 °F 95.3 °F 77.0 °F 77% 29.94 in 10.0 mi SSW 4.6 mph - N/A   Clear
9:53 PM 84.0 °F 92.6 °F 75.9 °F 76% 29.96 in 10.0 mi South 4.6 mph - N/A   Clear
10:53 PM 82.9 °F 90.8 °F 75.9 °F 79% 29.95 in 10.0 mi South 4.6 mph - N/A   Clear
11:53 PM 82.9 °F 91.8 °F 77.0 °F 82% 29.96 in 10.0 mi South 4.6 mph - N/A   Clear